When you browse on this site, cookies collect data to enhance your experience and personalize the content and advertising you see.
Visit our Privacy Policy to learn more. By continuing to use the site, you agree to this use of cookies and data.

Hourly Weather Lesnaya

Today, 10 July, Friday

Time Temperature Precipitation Wind Pressure Humidity
00:00 +9°C° 0 mm 2 mps 746 mmHg 88%
01:00 +9°C° 0 mm 2 mps 746 mmHg 88%
02:00 +8°C° 0 mm 2 mps 746 mmHg 89%
03:00 +9°C° 0 mm 2 mps 747 mmHg 88%
04:00 +9°C° 0 mm 2 mps 747 mmHg 87%
05:00 +11°C° 0 mm 1 mps 747 mmHg 85%
06:00 +13°C° 0 mm 2 mps 747 mmHg 76%
07:00 +15°C° 0 mm 2 mps 747 mmHg 67%
08:00 +18°C° 0 mm 2 mps 748 mmHg 59%
09:00 +19°C° 0 mm 3 mps 748 mmHg 56%
10:00 +20°C° 0 mm 3 mps 748 mmHg 53%
11:00 +20°C° 0 mm 3 mps 748 mmHg 49%
12:00 +21°C° 0 mm 3 mps 747 mmHg 47%
13:00 +22°C° 0 mm 3 mps 747 mmHg 45%
14:00 +22°C° 0 mm 3 mps 747 mmHg 43%
15:00 +21°C° 0 mm 3 mps 747 mmHg 50%
16:00 +20°C° 0 mm 3 mps 747 mmHg 58%
17:00 +19°C° 0 mm 4 mps 747 mmHg 66%
18:00 +18°C° 0.3 mm 3 mps 746 mmHg 74%
19:00 +16°C° 0.3 mm 3 mps 746 mmHg 83%
20:00 +15°C° 0.3 mm 2 mps 746 mmHg 91%
21:00 +15°C° 0 mm 2 mps 746 mmHg 90%
22:00 +14°C° 0 mm 3 mps 745 mmHg 88%
23:00 +16°C° 0 mm 3 mps 745 mmHg 87%

Tomorrow, 11 July, Saturday

Time Temperature Precipitation Wind Pressure Humidity
00:00 +15°C° 0.1 mm 4 mps 745 mmHg 88%
01:00 +15°C° 0.1 mm 4 mps 745 mmHg 89%
02:00 +15°C° 0.1 mm 4 mps 745 mmHg 90%
03:00 +17°C° 0 mm 4 mps 745 mmHg 90%
04:00 +17°C° 0 mm 4 mps 744 mmHg 90%
05:00 +17°C° 0 mm 4 mps 744 mmHg 90%
06:00 +18°C° 0 mm 4 mps 744 mmHg 89%
07:00 +18°C° 0 mm 4 mps 744 mmHg 88%
08:00 +19°C° 0 mm 4 mps 744 mmHg 86%
09:00 +20°C° 0 mm 5 mps 744 mmHg 82%
10:00 +21°C° 0 mm 5 mps 744 mmHg 78%
11:00 +23°C° 0 mm 5 mps 743 mmHg 74%
12:00 +23°C° 0.4 mm 5 mps 743 mmHg 77%
13:00 +23°C° 0.4 mm 5 mps 743 mmHg 81%
14:00 +23°C° 0.4 mm 5 mps 743 mmHg 84%
15:00 +25°C° 0.2 mm 5 mps 743 mmHg 77%
16:00 +25°C° 0.2 mm 5 mps 744 mmHg 69%
17:00 +26°C° 0.2 mm 5 mps 744 mmHg 61%
18:00 +23°C° 0 mm 4 mps 744 mmHg 63%
19:00 +21°C° 0 mm 4 mps 745 mmHg 64%
20:00 +19°C° 0 mm 3 mps 745 mmHg 65%
21:00 +17°C° 0 mm 3 mps 746 mmHg 69%
22:00 +16°C° 0 mm 2 mps 746 mmHg 72%
23:00 +15°C° 0 mm 2 mps 746 mmHg 75%

Day after tomorrow, 12 July, Sunday

Time Temperature Precipitation Wind Pressure Humidity
00:00 +14°C° 0 mm 2 mps 747 mmHg 78%
01:00 +13°C° 0 mm 2 mps 747 mmHg 80%
02:00 +13°C° 0 mm 2 mps 747 mmHg 82%
03:00 +13°C° 0 mm 1 mps 747 mmHg 81%
04:00 +14°C° 0 mm 1 mps 747 mmHg 80%
05:00 +14°C° 0 mm 1 mps 747 mmHg 78%
06:00 +14°C° 0.1 mm 1 mps 747 mmHg 81%
07:00 +14°C° 0.1 mm 1 mps 748 mmHg 84%
08:00 +14°C° 0.1 mm 1 mps 748 mmHg 87%
09:00 +14°C° 0.2 mm 1 mps 748 mmHg 89%
10:00 +14°C° 0.2 mm 1 mps 748 mmHg 91%
11:00 +14°C° 0.2 mm 1 mps 748 mmHg 93%
12:00 +14°C° 0.3 mm 1 mps 748 mmHg 93%
13:00 +15°C° 0.3 mm 1 mps 748 mmHg 92%
14:00 +15°C° 0.3 mm 1 mps 748 mmHg 92%
15:00 +14°C° 0 mm 0 mps 748 mmHg 92%
16:00 +14°C° 0 mm 0 mps 747 mmHg 92%
17:00 +14°C° 0 mm 0 mps 747 mmHg 93%
18:00 +14°C° 0 mm 1 mps 747 mmHg 93%
19:00 +14°C° 0 mm 1 mps 747 mmHg 93%
20:00 +14°C° 0 mm 1 mps 747 mmHg 93%
21:00 +14°C° 0 mm 1 mps 747 mmHg 93%
22:00 +13°C° 0 mm 1 mps 747 mmHg 94%
23:00 +13°C° 0 mm 1 mps 747 mmHg 94%

13 July, Monday

Time Temperature Precipitation Wind Pressure Humidity
00:00 +13°C° 0 mm 1 mps 746 mmHg 94%
01:00 +13°C° 0 mm 2 mps 746 mmHg 94%
02:00 +13°C° 0 mm 2 mps 746 mmHg 94%
03:00 +13°C° 0.4 mm 2 mps 745 mmHg 94%
04:00 +13°C° 0.4 mm 2 mps 745 mmHg 95%
05:00 +11°C° 0.4 mm 3 mps 745 mmHg 96%
06:00 +11°C° 2.8 mm 3 mps 745 mmHg 97%
07:00 +12°C° 2.8 mm 3 mps 745 mmHg 97%
08:00 +12°C° 2.8 mm 3 mps 745 mmHg 98%
09:00 +12°C° 0.3 mm 3 mps 744 mmHg 98%
10:00 +12°C° 0.3 mm 3 mps 744 mmHg 97%
11:00 +12°C° 0.3 mm 3 mps 744 mmHg 97%
12:00 +12°C° 0.2 mm 3 mps 744 mmHg 97%
13:00 +14°C° 0.2 mm 2 mps 744 mmHg 96%
14:00 +14°C° 0.2 mm 2 mps 743 mmHg 96%
15:00 +14°C° 0.2 mm 2 mps 743 mmHg 96%
16:00 +14°C° 0.2 mm 2 mps 743 mmHg 95%
17:00 +14°C° 0.2 mm 2 mps 743 mmHg 95%
18:00 +14°C° 0 mm 2 mps 743 mmHg 96%
19:00 +14°C° 0 mm 2 mps 743 mmHg 97%
20:00 +13°C° 0 mm 2 mps 743 mmHg 97%
21:00 +13°C° 0 mm 2 mps 742 mmHg 98%
22:00 +13°C° 0 mm 2 mps 742 mmHg 98%
23:00 +12°C° 0 mm 2 mps 742 mmHg 98%

14 July, Tuesday

Time Temperature Precipitation Wind Pressure Humidity
00:00 +11°C° 0 mm 3 mps 742 mmHg 98%
01:00 +11°C° 0 mm 3 mps 742 mmHg 98%
02:00 +11°C° 0 mm 3 mps 742 mmHg 98%
03:00 +11°C° 0 mm 3 mps 741 mmHg 97%
04:00 +11°C° 0 mm 4 mps 741 mmHg 96%
05:00 +12°C° 0 mm 4 mps 741 mmHg 95%
06:00 +13°C° 0 mm 4 mps 741 mmHg 87%
07:00 +14°C° 0 mm 5 mps 741 mmHg 79%
08:00 +16°C° 0 mm 5 mps 741 mmHg 71%
09:00 +17°C° 0 mm 5 mps 741 mmHg 67%
10:00 +19°C° 0 mm 5 mps 741 mmHg 62%
11:00 +20°C° 0 mm 5 mps 741 mmHg 57%
12:00 +20°C° 0 mm 5 mps 741 mmHg 56%
13:00 +20°C° 0 mm 5 mps 741 mmHg 55%
14:00 +21°C° 0 mm 5 mps 741 mmHg 54%
15:00 +21°C° 0 mm 4 mps 741 mmHg 57%
16:00 +20°C° 0 mm 4 mps 741 mmHg 59%
17:00 +20°C° 0 mm 3 mps 741 mmHg 61%
18:00 +19°C° 0 mm 4 mps 741 mmHg 64%
19:00 +18°C° 0 mm 4 mps 741 mmHg 67%
20:00 +17°C° 0 mm 4 mps 741 mmHg 70%
21:00 +15°C° 0 mm 4 mps 741 mmHg 67%
22:00 +14°C° 0 mm 4 mps 741 mmHg 65%
23:00 +14°C° 0 mm 3 mps 741 mmHg 63%

15 July, Wednesday

Time Temperature Precipitation Wind Pressure Humidity
00:00 +13°C° 0 mm 3 mps 741 mmHg 65%
01:00 +13°C° 0 mm 3 mps 741 mmHg 67%
02:00 +12°C° 0 mm 3 mps 741 mmHg 69%
03:00 +12°C° 0 mm 4 mps 742 mmHg 71%
04:00 +12°C° 0 mm 4 mps 742 mmHg 74%
05:00 +12°C° 0 mm 4 mps 742 mmHg 77%
06:00 +13°C° 0 mm 4 mps 742 mmHg 71%
07:00 +14°C° 0 mm 4 mps 742 mmHg 65%
08:00 +16°C° 0 mm 5 mps 742 mmHg 60%
09:00 +17°C° 0 mm 5 mps 742 mmHg 55%
10:00 +19°C° 0 mm 5 mps 742 mmHg 51%
11:00 +20°C° 0 mm 5 mps 742 mmHg 46%
12:00 +21°C° 0 mm 5 mps 742 mmHg 45%
13:00 +21°C° 0 mm 5 mps 742 mmHg 45%
14:00 +22°C° 0 mm 5 mps 742 mmHg 44%
15:00 +21°C° 0 mm 4 mps 742 mmHg 52%
16:00 +20°C° 0 mm 4 mps 743 mmHg 59%
17:00 +19°C° 0 mm 3 mps 743 mmHg 66%
18:00 +18°C° 0 mm 3 mps 743 mmHg 71%
19:00 +16°C° 0 mm 3 mps 743 mmHg 76%
20:00 +15°C° 0 mm 2 mps 744 mmHg 81%
21:00 +14°C° 0 mm 2 mps 744 mmHg 86%
22:00 +13°C° 0 mm 2 mps 744 mmHg 90%
23:00 +12°C° 0 mm 2 mps 745 mmHg 95%
Show more